Regional Weather Roundup
Issued by NWS Midland/Odessa, TX

Skip options and go directly to product.
Home | Oldest Version | Next Version | Current Version | All | Text Only | Save Text | Print | Product List | Glossary On

Skip product version selection by date and time.   
584
ASUS44 KMAF 261501
RWRMAF
MIDLAND AREA WEATHER ROUNDUP
NATIONAL WEATHER SERVICE MIDLAND TX
1000 AM CDT SUN APR 26 2015

...IN SOUTHWEST TEXAS AND SOUTHEAST NEW MEXICO...

CITY           SKY/WX    TMP DP  RH WIND       PRES   REMARKS
ALPINE         MOSUNNY   70  27  20 SW18      29.87F
ANDREWS        FAIR      70  29  22 W13       29.74S
ARTESIA        PTSUNNY   68  28  22 S10       29.75S
BIG SPRING     SUNNY     74  47  39 S7        29.74F
CARLSBAD       PTSUNNY   65  32  29 CALM      29.72F
DRYDEN           N/A     79  39  23 SW15G22   29.71F
FORT STOCKTON  MOSUNNY   72  33  24 SW8       29.75F
GUAD PASS      NOT AVBL
HOBBS          SUNNY     61  28  29 SW7       29.76S
MARFA          MOSUNNY   63  32  31 S14       29.86F
MIDLAND AIRPK  SUNNY     74  46  37 SW8       29.74F
MIDLAND INTL   SUNNY     75  45  34 SW7       29.73F
ODESSA         SUNNY     76  31  19 W9        29.74F
PECOS          PTSUNNY   64  29  26 S7        29.73F
PRESIDIO       FAIR      73  29  19 SE13      29.78F
SEMINOLE       MOSUNNY   69  29  22 SW7       29.74F
SNYDER         SUNNY     67  49  53 S5        29.73F
WINK           CLOUDY    71  29  21 W7        29.72F
$$
...OTHER STATIONS IN TEXAS...

CITY           SKY/WX    TMP DP  RH WIND       PRES   REMARKS
ABILENE        SUNNY     75  56  51 SW8       29.72R
AMARILLO       PTSUNNY   65  30  27 S6        29.74R
AUSTIN         CLOUDY    72  67  84 N5        29.75R THUNDER
BROWNSVILLE    CLOUDY    84  77  79 SE9       29.69R HAZE
CORPUS CHRISTI PTSUNNY   80  75  84 E10       29.69F
DALLAS FTW     MOSUNNY   73  61  65 S9        29.70S
DEL RIO        CLOUDY    77  72  84 S9        29.68S HAZE
EL PASO        CLOUDY    63  21  20 SW21      29.77F
HOUSTON INT    CLOUDY    75  69  81 E8        29.74F
LUBBOCK        PTSUNNY   73  30  20 SW9       29.72F
SAN ANGELO     CLOUDY    74  66  76 S12       29.70F
SAN ANTONIO    CLOUDY    75  69  81 SE7       29.74S
WACO           PTSUNNY   76  70  82 SE10      29.72F
WICHITA FALLS  NOT AVBL
$$
...OTHER LOCATIONS IN NEW MEXICO...

CITY           SKY/WX    TMP DP  RH WIND       PRES   REMARKS
ALAMAGORDO     PTSUNNY   59  27  29 SW8       29.77F
ALBUQUERQUE    CLOUDY    44  38  79 N8        29.79F WCI  39
CANNON AFB     NOT AVBL
CLOVIS         CLOUDY    63  28  27 SW12      29.74F
HOLLOMAN AFB   NOT AVBL
ROSWELL        PTSUNNY   67  29  24 S13       29.72S
RUIDOSO        PTSUNNY   46  25  42 N8G22     29.83F
SANTA FE       LGT RAIN  42  38  85 SW24      29.79R WCI  32
TRUTH OR CONSE LGT RAIN  50  37  61 NW22      29.75S
TUCUMCARI      CLOUDY    62  30  29 W3        29.72R
$$

USA.gov is the U.S. government's official web portal to all federal, state and local government web resources and services.